Tracking 22882 objects as of 18-Apr-2021
HD Live streaming from Space Station
objects crossing your sky now

OPS 0203 (DMSP 5A F2)

Track OPS 0203 (DMSP 5A F2) now!
10-day predictions
OPS 0203 (DMSP 5A F2) is classified as:


NORAD ID: 4512
Int'l Code: 1970-070A
Perigee: 737.7 km
Apogee: 828.5 km
Inclination: 98.9 °
Period: 100.4 minutes
Semi major axis: 7154 km
RCS: 0.9702 m2 (medium)
Launch date: September 3, 1970
Source: United States (US)
Launch site: AIR FORCE WESTERN TEST RANGE (AFWTR)
aabbcc
Your satellite tracking list
Your tracking list is empty




NASA's NSSDC Master Catalog

Two Line Element Set (TLE):
1  4512U 70070A   21107.90724366  .00000024  00000-0  24722-4 0  9991
2  4512  98.9280 340.8612 0063483 234.4901 125.0351 14.34738068641441
Source of the keplerian elements: AFSPC